EW9200 Weather Reports


Display with metric or nautical units.
time (UTC)temp
F
wind
direction
speed
MPH
gust
MPH
rain 1hr
in
rain 24hr
in
rain mn
in
humidity
%
barometer
mb
20260506005531 53 0 0.0 1.0 0.00 0.15 0.13 54 1008.7
20260506005033 53 19 0.0 1.0 0.00 0.15 0.13 53 1008.7
20260506004550 53 20 0.0 2.0 0.00 0.15 0.13 51 1008.8
20260506004031 53 18 0.0 2.0 0.00 0.15 0.13 51 1008.6
20260506003531 53 17 0.0 2.0 0.00 0.15 0.13 50 1008.6
20260506003044 53 0 0.0 2.0 0.00 0.15 0.13 51 1008.5
20260506002530 54 0 0.0 4.0 0.00 0.15 0.13 50 1008.6
20260506002028 54 324 0.0 4.0 0.00 0.15 0.13 49 1008.6
20260506001544 54 327 1.0 4.0 0.00 0.15 0.13 48 1008.5
20260506001031 54 303 1.0 4.0 0.00 0.15 0.13 47 1008.2
20260506000533 54 290 1.0 7.0 0.00 0.15 0.13 47 1008.7
20260506000057 54 311 3.0 7.0 0.00 0.15 0.13 46 1008.5
20260505235530 54 354 3.0 6.0 0.00 0.17 0.13 45 1008.3
20260505235030 54 358 1.0 4.0 0.00 0.17 0.13 46 1008.3
20260505234541 54 16 1.0 7.0 0.00 0.17 0.13 47 1008.3
20260505234034 55 340 2.0 7.0 0.00 0.17 0.13 47 1008.2
20260505233534 55 348 1.0 4.0 0.00 0.17 0.13 49 1008.5
20260505233041 55 293 1.0 3.0 0.00 0.17 0.13 48 1008.5
20260505232531 55 18 1.0 4.0 0.00 0.17 0.13 47 1008.6
20260505232032 55 322 2.0 4.0 0.00 0.17 0.13 46 1008.6
20260505231544 55 278 1.0 4.0 0.00 0.17 0.13 47 1008.5
20260505231030 55 58 1.0 4.0 0.00 0.17 0.13 48 1008.3
20260505230530 55 286 1.0 3.0 0.00 0.17 0.13 46 1008.5
20260505230043 55 311 1.0 6.0 0.00 0.17 0.13 45 1008.4
20260505225530 55 290 2.0 6.0 0.00 0.24 0.13 44 1008.6
20260505225030 55 58 1.0 6.0 0.00 0.24 0.13 43 1008.6
20260505224543 56 8 0.0 10.0 0.00 0.24 0.13 45 1008.8
20260505224031 56 334 3.0 10.0 0.00 0.24 0.13 43 1008.8
20260505223531 56 316 2.0 9.0 0.00 0.24 0.13 44 1008.9
20260505223044 56 75 1.0 9.0 0.00 0.24 0.13 45 1008.8
20260505222531 56 312 3.0 9.0 0.00 0.24 0.13 42 1008.9
20260505222031 56 297 2.0 6.0 0.00 0.24 0.13 43 1008.8
20260505221546 56 293 2.0 9.0 0.00 0.24 0.13 43 1008.9
20260505221031 56 319 3.0 9.0 0.00 0.24 0.13 42 1008.8
20260505220533 56 337 2.0 5.0 0.00 0.24 0.13 43 1008.8
20260505220100 56 147 1.0 6.0 0.00 0.24 0.13 44 1008.8
20260505215531 56 290 3.0 6.0 0.00 0.33 0.13 41 1008.7
20260505215030 56 326 2.0 6.0 0.00 0.33 0.13 43 1008.9
20260505214550 56 17 2.0 8.0 0.00 0.33 0.13 41 1009.1
20260505214030 55 271 2.0 8.0 0.00 0.33 0.13 44 1008.9
20260505213530 56 323 2.0 8.0 0.00 0.33 0.13 43 1008.9
20260505213047 56 285 1.0 6.0 0.00 0.33 0.13 46 1008.9
20260505212530 56 288 2.0 5.0 0.00 0.33 0.13 44 1009.0
20260505212030 56 34 2.0 5.0 0.00 0.33 0.13 44 1009.0
20260505211545 56 308 1.0 4.0 0.00 0.33 0.13 44 1009.0
20260505211030 56 283 1.0 5.0 0.00 0.33 0.13 47 1009.1
20260505210529 56 278 2.0 5.0 0.00 0.33 0.13 47 1009.0
20260505210050 55 297 2.0 5.0 0.00 0.33 0.13 45 1008.8
20260505205533 55 214 0.0 4.0 0.00 0.33 0.13 49 1009.0
20260505205029 55 45 1.0 4.0 0.00 0.33 0.13 48 1009.0
20260505204552 55 3 1.0 4.0 0.00 0.33 0.13 46 1009.0
20260505204030 55 26 1.0 3.0 0.00 0.33 0.13 49 1009.2
20260505203530 55 360 1.0 3.0 0.00 0.33 0.13 46 1009.1
20260505203042 55 0 0.0 6.0 0.00 0.33 0.13 48 1009.3
20260505202530 55 21 2.0 7.0 0.00 0.33 0.13 44 1009.3
20260505202030 55 311 1.0 7.0 0.00 0.33 0.13 47 1009.3
20260505201547 55 285 2.0 7.0 0.00 0.33 0.13 44 1009.4
20260505201030 55 249 1.0 6.0 0.00 0.33 0.13 47 1009.4
20260505200529 55 350 2.0 6.0 0.00 0.33 0.13 45 1009.4
20260505200042 55 278 3.0 6.0 0.00 0.33 0.13 45 1009.5
20260505195531 55 304 2.0 5.0 0.00 0.33 0.13 47 1009.4
20260505195029 55 355 1.0 5.0 0.00 0.33 0.13 48 1009.3
20260505194551 55 180 1.0 6.0 0.00 0.33 0.13 49 1009.4
20260505194030 55 354 2.0 7.0 0.00 0.33 0.13 48 1009.2
20260505193530 55 336 3.0 7.0 0.00 0.33 0.13 49 1009.2
20260505193043 55 330 1.0 4.0 0.00 0.33 0.13 49 1009.3
20260505192530 56 18 1.0 4.0 0.00 0.33 0.13 48 1009.5
20260505192031 56 327 1.0 4.0 0.00 0.33 0.13 48 1009.5
20260505191540 56 11 1.0 6.0 0.00 0.33 0.13 48 1009.5
20260505191030 55 20 2.0 9.0 0.00 0.33 0.13 47 1009.5
20260505190530 55 25 3.0 10.0 0.00 0.33 0.13 47 1009.6
20260505190038 56 332 3.0 10.0 0.00 0.33 0.13 47 1009.7
20260505185530 56 288 3.0 9.0 0.00 0.33 0.13 47 1009.5
20260505185034 56 31 2.0 9.0 0.00 0.33 0.13 49 1009.4
20260505184550 56 321 2.0 10.0 0.00 0.33 0.13 48 1009.4
20260505184029 56 295 3.0 10.0 0.00 0.33 0.13 48 1009.6
20260505183529 56 25 2.0 8.0 0.00 0.33 0.13 46 1009.5
20260505183050 56 8 3.0 8.0 0.00 0.33 0.13 45 1009.6
20260505182529 57 312 3.0 10.0 0.00 0.33 0.13 47 1009.6
20260505182029 57 283 1.0 10.0 0.00 0.33 0.13 49 1009.5
20260505181543 57 308 4.0 10.0 0.00 0.33 0.13 46 1009.4
20260505181029 57 14 3.0 7.0 0.00 0.33 0.13 46 1009.3
20260505180530 57 34 2.0 7.0 0.00 0.33 0.13 46 1009.3
20260505180041 57 36 2.0 5.0 0.00 0.33 0.13 45 1009.5
20260505175530 57 321 1.0 7.0 0.00 0.33 0.13 47 1009.4
20260505175030 57 316 3.0 7.0 0.00 0.33 0.13 45 1009.3
20260505174544 57 345 2.0 7.0 0.00 0.33 0.13 46 1009.2
20260505174029 57 315 2.0 6.0 0.00 0.33 0.13 48 1009.3
20260505173530 57 342 1.0 7.0 0.00 0.33 0.13 49 1009.2
20260505173044 56 217 2.0 7.0 0.00 0.33 0.13 48 1009.2
20260505172529 56 343 1.0 8.0 0.00 0.33 0.13 51 1009.3
20260505172031 56 349 4.0 8.0 0.00 0.33 0.13 46 1009.2
20260505171545 57 292 1.0 4.0 0.00 0.33 0.13 50 1009.2
20260505171031 57 311 1.0 4.0 0.00 0.33 0.13 49 1009.2
20260505170529 57 237 1.0 5.0 0.00 0.33 0.13 53 1009.1
20260505170049 56 0 2.0 5.0 0.00 0.33 0.13 53 1009.1
20260505165529 56 1 1.0 5.0 0.00 0.33 0.13 55 1009.0
20260505165030 56 195 0.0 7.0 0.00 0.33 0.13 57 1009.0
20260505164555 56 343 2.0 7.0 0.00 0.33 0.13 56 1009.1
20260505164030 56 274 3.0 7.0 0.00 0.33 0.13 57 1009.0
20260505163531 56 304 2.0 7.0 0.00 0.33 0.13 55 1009.1
20260505163044 56 332 3.0 6.0 0.00 0.33 0.13 55 1009.2
20260505162529 56 239 1.0 6.0 0.00 0.33 0.13 60 1009.1
20260505162029 56 25 2.0 6.0 0.00 0.33 0.13 57 1009.3
20260505161550 56 221 1.0 7.0 0.00 0.33 0.13 61 1009.1
20260505161029 56 50 1.0 7.0 0.00 0.33 0.13 63 1009.3
20260505160529 55 45 2.0 7.0 0.00 0.33 0.13 62 1009.2
20260505153046 54 93 1.0 4.0 0.00 0.33 0.13 64 1008.9
20260505152530 54 356 1.0 3.0 0.00 0.33 0.13 69 1009.0
20260505152031 53 0 0.0 1.0 0.00 0.33 0.13 71 1008.8
20260505151543 52 200 0.0 1.0 0.00 0.33 0.13 74 1008.8
20260505151029 51 216 0.0 2.0 0.00 0.33 0.13 77 1008.9
20260505150529 51 312 0.0 2.0 0.00 0.33 0.13 77 1008.8
20260505140530 44 25 1.0 2.0 0.05 0.33 0.13 95 1009.1
20260505125028 44 347 0.0 6.0 0.06 0.26 0.06 88 1008.6
20260505124549 44 347 1.0 6.0 0.06 0.26 0.06 87 1008.7
20260505124028 44 8 2.0 8.0 0.05 0.25 0.05 86 1008.7
20260505123528 44 318 3.0 8.0 0.05 0.25 0.05 85 1008.8
20260505123046 44 359 2.0 6.0 0.05 0.25 0.05 85 1008.7
20260505122530 45 312 2.0 8.0 0.05 0.25 0.05 84 1008.5
20260505122029 45 354 3.0 8.0 0.04 0.24 0.04 82 1008.3
20260505121537 46 293 3.0 7.0 0.04 0.24 0.04 80 1008.6
20260505121029 47 9 1.0 10.0 0.03 0.23 0.03 79 1008.7
20260505120529 48 4 3.0 10.0 0.02 0.22 0.02 76 1008.9
20260505120059 49 20 4.0 6.0 0.01 0.21 0.01 73 1008.7
20260505115529 50 358 3.0 7.0 0.00 0.20 0.00 68 1008.6
20260505115032 50 330 2.0 7.0 0.00 0.20 0.00 67 1008.5
20260505114544 51 34 1.0 7.0 0.00 0.20 0.00 65 1008.3
20260505114030 51 333 2.0 7.0 0.00 0.20 0.00 64 1008.0
20260505113528 51 342 3.0 7.0 0.00 0.20 0.00 63 1007.7
20260505113049 51 316 2.0 5.0 0.00 0.20 0.00 64 1007.6
20260505112529 51 334 1.0 4.0 0.00 0.20 0.00 65 1007.4
20260505112029 51 356 1.0 5.0 0.00 0.20 0.00 63 1007.3
20260505111537 51 12 1.0 5.0 0.00 0.20 0.00 64 1007.2
20260505111029 51 14 1.0 4.0 0.00 0.20 0.00 64 1007.1
20260505110528 51 314 0.0 2.0 0.00 0.20 0.00 67 1006.8
20260505102030 51 0 0.0 2.0 0.00 0.20 0.00 73 1006.7
20260505101536 51 0 0.0 2.0 0.00 0.20 0.00 72 1006.4
20260505101029 51 0 0.0 2.0 0.00 0.20 0.00 73 1006.6
20260505100534 51 0 0.0 6.0 0.00 0.20 0.00 73 1006.2
20260505100036 51 273 1.0 6.0 0.00 0.20 0.00 73 1006.4
20260505095528 51 0 0.0 1.0 0.00 0.20 0.00 73 1005.8
20260505095030 51 0 0.0 1.0 0.00 0.20 0.00 73 1005.7
20260505094542 51 0 0.0 2.0 0.00 0.20 0.00 72 1005.9
20260505094029 51 329 0.0 2.0 0.00 0.20 0.00 71 1005.7
20260505093530 52 0 0.0 2.0 0.00 0.20 0.00 71 1005.8
20260505093048 52 270 0.0 1.0 0.00 0.20 0.00 70 1005.9
20260505092530 52 0 0.0 2.0 0.00 0.20 0.00 70 1006.0
20260505092029 52 0 0.0 2.0 0.00 0.20 0.00 68 1005.9
20260505091541 52 0 0.0 2.0 0.00 0.20 0.00 68 1006.1
20260505091028 52 0 0.0 1.0 0.00 0.20 0.00 68 1006.2
20260505090529 52 0 0.0 1.0 0.00 0.20 0.00 68 1005.9
20260505090043 53 0 0.0 1.0 0.00 0.20 0.00 67 1005.9
20260505085530 53 0 0.0 1.0 0.00 0.20 0.00 66 1005.5
20260505085029 53 0 0.0 2.0 0.00 0.20 0.00 65 1005.2
20260505084547 53 0 0.0 2.0 0.00 0.20 0.00 64 1005.2
20260505084029 53 0 0.0 4.0 0.00 0.20 0.00 64 1005.4
20260505083529 53 224 0.0 4.0 0.00 0.20 0.00 65 1005.1
20260505083049 53 293 0.0 3.0 0.00 0.20 0.00 65 1004.6
20260505082529 53 254 0.0 1.0 0.00 0.20 0.00 65 1004.6
20260505082030 53 0 0.0 2.0 0.00 0.20 0.00 64 1004.2
20260505081538 54 309 0.0 4.0 0.00 0.20 0.00 64 1004.2
20260505081030 54 0 0.0 4.0 0.00 0.20 0.00 64 1003.8
20260505080530 54 340 1.0 4.0 0.00 0.20 0.00 62 1003.7
20260505080047 54 349 1.0 3.0 0.00 0.20 0.00 62 1003.7
20260505075528 54 330 1.0 3.0 0.00 0.20 0.00 62 1003.7
20260505075029 55 310 0.0 4.0 0.00 0.20 0.00 62 1003.6
20260505074540 55 297 1.0 4.0 0.00 0.20 0.00 61 1003.5
20260505074029 55 0 1.0 5.0 0.00 0.20 0.00 61 1003.4
20260505073530 55 27 1.0 5.0 0.00 0.20 0.00 60 1003.5
20260505073040 55 6 1.0 4.0 0.00 0.20 0.00 59 1003.5
20260505072530 55 34 1.0 6.0 0.00 0.20 0.00 60 1003.4
20260505072029 55 15 0.0 6.0 0.00 0.20 0.00 60 1003.3
20260505071536 55 345 0.0 3.0 0.00 0.20 0.00 59 1003.2
20260505071029 56 40 0.0 4.0 0.00 0.20 0.00 60 1003.0
20260505070531 56 332 1.0 4.0 0.00 0.20 0.00 59 1002.9
20260505070050 55 285 1.0 4.0 0.00 0.20 0.00 60 1002.8
20260505065529 55 2 1.0 5.0 0.00 0.20 0.00 61 1002.8
20260505065028 56 343 1.0 5.0 0.00 0.20 0.00 60 1002.7
20260505064548 56 333 2.0 5.0 0.00 0.20 0.00 60 1002.6
20260505064028 56 327 2.0 5.0 0.00 0.20 0.00 60 1002.7
20260505063528 55 46 1.0 5.0 0.00 0.20 0.00 60 1002.5
20260505063044 55 311 1.0 3.0 0.00 0.20 0.00 61 1002.5
20260505062530 55 319 1.0 3.0 0.00 0.20 0.00 61 1002.4
20260505062028 55 30 1.0 3.0 0.00 0.20 0.00 61 1002.4
20260505061538 56 310 1.0 2.0 0.00 0.20 0.00 61 1002.4
20260505061029 56 323 1.0 6.0 0.00 0.20 0.00 60 1002.4
20260505060529 56 27 1.0 6.0 0.00 0.20 0.00 60 1002.5
20260505060048 56 354 1.0 6.0 0.00 0.20 0.00 60 1002.5
20260505055529 56 297 0.0 3.0 0.00 0.20 0.00 61 1002.4
20260505055026 56 0 0.0 4.0 0.00 0.20 0.00 61 1002.5
20260505054546 57 312 0.0 4.0 0.00 0.20 0.00 60 1002.4
20260505054032 57 314 1.0 4.0 0.00 0.20 0.00 62 1002.5
20260505053531 57 10 2.0 4.0 0.00 0.20 0.00 62 1002.6
20260505053109 57 313 0.0 3.0 0.00 0.20 0.00 63 1002.6
20260505052528 57 0 1.0 3.0 0.00 0.20 0.00 64 1002.8
20260505052032 57 320 1.0 2.0 0.00 0.20 0.00 65 1002.6
20260505051538 57 229 0.0 2.0 0.00 0.20 0.00 66 1002.5
20260505051028 57 344 0.0 2.0 0.00 0.20 0.00 68 1002.4
20260505050529 57 8 0.0 3.0 0.00 0.20 0.00 69 1002.3
20260505041543 58 292 0.0 1.0 0.00 0.20 0.20 88 1001.2
20260505041031 58 0 0.0 1.0 0.00 0.20 0.20 88 1001.1
20260505040530 59 0 0.0 1.0 0.00 0.20 0.20 87 1001.1
20260505040043 59 0 0.0 2.0 0.00 0.20 0.20 87 1001.0
20260505035534 59 0 0.0 3.0 0.00 0.20 0.20 87 1000.9
20260505035031 59 231 0.0 4.0 0.00 0.20 0.20 86 1001.2
20260505034554 59 243 1.0 4.0 0.00 0.20 0.20 86 1001.1
20260505034032 59 0 0.0 4.0 0.00 0.20 0.20 86 1001.3
20260505033532 60 233 1.0 4.0 0.00 0.20 0.20 85 1001.5
20260505033051 60 233 0.0 4.0 0.00 0.20 0.20 85 1001.4
20260505032530 60 292 1.0 6.0 0.00 0.20 0.20 84 1001.2
20260505032028 60 178 2.0 7.0 0.00 0.20 0.20 84 1001.0
20260505031542 60 229 2.0 7.0 0.00 0.20 0.20 84 1001.0
20260505031032 61 221 2.0 8.0 0.00 0.20 0.20 83 1001.0
20260505030530 61 226 2.0 8.0 0.00 0.20 0.20 83 1001.0
20260505030044 61 242 3.0 7.0 0.00 0.20 0.20 82 1000.9
20260505025528 61 214 2.0 7.0 0.00 0.20 0.20 82 1000.7
20260505025030 61 264 1.0 6.0 0.00 0.20 0.20 81 1000.5
20260505024544 62 183 2.0 6.0 0.00 0.20 0.20 80 1000.4
20260505024032 62 204 2.0 6.0 0.00 0.20 0.20 80 1000.3
20260505023531 61 197 3.0 6.0 0.00 0.20 0.20 80 1000.4
20260505023047 61 216 1.0 5.0 0.01 0.20 0.20 82 1000.4
20260505022531 60 230 1.0 5.0 0.01 0.20 0.20 83 1000.3
20260505022031 60 162 1.0 6.0 0.01 0.20 0.20 84 1000.4
20260505021542 60 119 2.0 6.0 0.01 0.20 0.20 84 1000.4
20260505021032 60 132 2.0 5.0 0.01 0.20 0.20 84 1000.3
20260505020530 60 140 2.0 5.0 0.01 0.20 0.20 84 1000.1
20260505020040 60 161 3.0 6.0 0.01 0.20 0.20 84 999.8
20260505015531 60 160 1.0 6.0 0.02 0.20 0.20 84 999.6
20260505015030 60 134 1.0 8.0 0.02 0.20 0.20 82 999.2
20260505014543 61 215 2.0 8.0 0.02 0.20 0.20 81 999.1
20260505014030 61 204 3.0 10.0 0.02 0.20 0.20 79 999.1
20260505013536 61 137 3.0 10.0 0.02 0.20 0.20 79 999.2
20260505013038 61 227 2.0 6.0 0.01 0.19 0.19 80 999.4
20260505012530 60 303 2.0 6.0 0.01 0.19 0.19 83 999.6
20260505012031 60 143 2.0 7.0 0.01 0.19 0.19 83 999.6
20260505011603 60 181 3.0 11.0 0.01 0.19 0.19 84 999.5
20260505011030 60 217 4.0 14.0 0.01 0.19 0.19 84 999.6
20260505010534 61 220 4.0 14.0 0.01 0.19 0.19 83 999.8
20260505010053 61 248 5.0 14.0 0.01 0.19 0.19 81 1000.0